[[{"header":{"parameterUnit":"m.s-1","parameterCategory":1,"la1":30.2991,"la2":30.254,"lo1":-89.0895,"lo2":-89.0444,"dy":0.0017,"dx":0.0017,"nx":28,"ny":28,"refTime":"2025-04-17T21:00:00:Z","depth":0,"parameterNumber":2,"parameterNumberName":"U-component_of_WINDS"},"data":[0,0,0,0,0,0,0,0,0,0,0,0,0,0,0,0,0,0,0,0,0,0,0,0,0,0,0,0,0,0,0,0,0,0,0,0,0,0,0,0,0,0,0,0,0,0,0,0,0,0,0,0,0,0,0,0,0,0,-3.1276,-3.1277,0,-3.1387,-3.1388,-3.1389,-3.1415,-3.1414,-3.1413,-3.1413,-3.1529,-3.1532,-3.1536,0,0,0,0,0,0,0,0,0,0,0,0,0,-3.1088,-3.1091,-3.1275,-3.1277,-3.1278,-3.1387,-3.1388,-3.139,-3.1415,-3.1414,-3.1413,-3.1412,-3.1527,-3.1532,-3.1536,0,0,0,0,0,0,0,0,0,0,0,0,0,-3.1181,-3.1092,-3.1275,-3.1304,-3.1308,-3.1386,-3.1388,-3.139,-3.1415,-3.1414,-3.1413,-3.1412,-3.1526,-3.1531,-3.1537,-3.1596,0,0,-3.1555,-3.1557,0,0,0,0,0,0,0,0,-3.1176,-3.1188,-3.1298,-3.1302,-3.1306,-3.1386,-3.1365,-3.1459,-3.1415,-3.1374,-3.1413,-3.1411,-3.1482,-3.1491,-3.1515,-3.1601,-3.1606,-3.1555,-3.1558,-3.1561,-3.1563,0,0,0,0,0,0,0,-3.1169,-3.1183,-3.132,-3.13,-3.1305,-3.1312,-3.1324,-3.1383,-3.1434,-3.1378,-3.138,-3.1393,-3.1484,-3.1509,-3.1518,-3.1608,-3.1555,-3.156,-3.1563,-3.1566,-3.1749,-3.175,0,0,0,0,0,0,-3.1157,-3.1178,-3.1316,-3.1323,-3.1237,-3.1316,-3.133,-3.1361,-3.1433,-3.1443,-3.1394,-3.1393,-3.15,-3.1511,-3.1522,-3.1596,-3.1561,-3.1566,-3.157,-3.1748,-3.1749,-3.1751,0,0,0,0,0,0,-3.1153,-3.117,-3.1312,-3.1251,-3.127,-3.1321,-3.1356,-3.1364,-3.1389,-3.1445,-3.1454,-3.141,-3.15,-3.1514,-3.1577,-3.16,-3.1569,-3.1574,-3.1746,-3.1748,-3.175,-3.1743,0,0,0,0,0,0,-3.1148,-3.1168,-3.119,-3.1251,-3.1273,-3.1364,-3.1358,-3.1367,-3.1399,-3.14,-3.1462,-3.1472,-3.15,-3.1569,-3.1583,-3.1607,-3.1579,-3.1744,-3.1747,-3.1749,-3.1741,-3.1745,-3.1747,0,0,0,0,0,-3.1141,-3.1184,-3.1191,-3.1207,-3.1301,-3.1365,-3.1378,-3.1408,-3.1401,-3.1424,-3.146,-3.147,-3.1595,-3.1575,-3.1591,-3.1618,-3.1743,-3.1746,-3.1749,-3.174,-3.1744,-3.1747,0,0,0,0,0,0,-3.1124,-3.1192,-3.1201,-3.1265,-3.1309,-3.1369,-3.1399,-3.1412,-3.1459,-3.1458,-3.1495,-3.1509,-3.157,-3.1601,-3.1577,-3.1679,-3.1669,-3.1676,-3.1656,-3.1661,-3.1663,-3.1654,-3.1583,0,0,0,0,0,-3.1128,-3.1173,-3.1231,-3.1282,-3.1303,-3.1347,-3.1377,-3.1397,-3.1444,-3.1463,-3.1504,-3.155,-3.16,-3.1632,-3.1681,-3.1746,-3.1761,-3.1773,-3.1776,-3.1778,-3.1783,-3.182,-3.1826,-3.1761,-3.1761,-3.1761,0,0,-3.1136,-3.1179,-3.1205,-3.1279,-3.1316,-3.1363,-3.1363,-3.1413,-3.1448,-3.1471,-3.1533,-3.1564,-3.1619,-3.1683,-3.1714,-3.171,-3.1804,-3.1782,-3.1783,-3.1787,-3.1824,-3.183,-3.1835,-3.1764,-3.1763,-3.1763,0,0,-3.1175,-3.1212,-3.1258,-3.1295,-3.135,-3.1379,-3.139,-3.145,-3.1471,-3.1534,-3.1552,-3.1596,-3.1681,-3.1719,-3.1749,-3.1804,-3.1815,-3.1819,-3.1834,-3.187,-3.1875,-3.188,-3.1899,-3.1905,-3.1824,-3.1824,-3.1824,0,-3.1178,-3.1248,-3.128,-3.1329,-3.1361,-3.1384,-3.1432,-3.1466,-3.1535,-3.1557,-3.1553,-3.1661,-3.1699,-3.1773,-3.1786,-3.181,-3.1824,-3.1811,-3.1871,-3.1876,-3.1881,-3.19,-3.1907,-3.1824,-3.1824,-3.1824,-3.1824,0,-3.125,-3.1299,-3.133,-3.1395,-3.1431,-3.1479,-3.1519,-3.1552,-3.1569,-3.1599,-3.1663,-3.171,-3.1769,-3.1789,-3.1806,-3.1866,-3.1862,-3.1864,-3.1855,-3.1887,-3.1905,-3.1913,-3.1824,-3.1824,-3.1824,-3.1824,0,0,-3.128,-3.1362,-3.1373,-3.1403,-3.1466,-3.1505,-3.1555,-3.1612,-3.164,-3.1687,-3.173,-3.1802,-3.1805,-3.1839,-3.1862,-3.1893,-3.1933,-3.1892,-3.1894,-3.1897,-3.2001,-3.1999,-3.2006,-3.1942,-3.1943,-3.1944,-3.1997,0,-3.1326,-3.1414,-3.1444,-3.1518,-3.1563,-3.1586,-3.163,-3.1674,-3.1704,-3.1748,-3.1781,-3.1832,-3.1831,-3.1853,-3.1885,-3.1921,-3.1954,-3.1918,-3.1982,-3.1984,-3.1967,-3.2016,-3.2013,-3.206,-3.2004,-3.2005,-3.2006,0,-3.1391,-3.1438,-3.1515,-3.1573,-3.1594,-3.1632,-3.1687,-3.1729,-3.178,-3.18,-3.1839,-3.1859,-3.1913,-3.1901,-3.1976,-3.1951,-3.1979,-3.2002,-3.2004,-3.2011,-3.1996,-3.2023,-3.2076,-3.2083,-3.2018,-3.2017,-3.2016,0,-3.1404,-3.1487,-3.1545,-3.157,-3.1639,-3.1665,-3.1695,-3.1745,-3.1778,-3.1827,-3.1848,-3.1903,-3.1933,-3.1976,-3.2011,-3.1999,-3.2083,-3.2074,-3.2101,-3.21,-3.2116,-3.2115,-3.2174,-3.2136,-3.2136,-3.2136,-3.2135,0,-3.1452,-3.1498,-3.1551,-3.1586,-3.164,-3.1675,-3.1727,-3.1759,-3.1803,-3.1846,-3.187,-3.1909,-3.1953,-3.1999,-3.2027,-3.2085,-3.2098,-3.2116,-3.2123,-3.2114,-3.2111,-3.2132,-3.2129,-3.2138,-3.2137,-3.2137,-3.2136,0,-3.1475,-3.1513,-3.1577,-3.1637,-3.1653,-3.169,-3.1742,-3.1777,-3.1808,-3.1862,-3.1877,-3.1926,-3.1981,-3.202,-3.2091,-3.211,-3.2172,-3.2179,-3.2155,-3.2158,-3.2182,-3.2179,-3.2256,-3.2268,-3.2222,-3.2223,-3.2223,0,-3.1503,-3.1539,-3.1603,-3.1632,-3.1662,-3.171,-3.1743,-3.1781,-3.1814,-3.1876,-3.1904,-3.196,-3.2007,-3.2094,-3.2137,-3.2192,-3.22,-3.2223,-3.2208,-3.2198,-3.22,-3.2197,-3.2201,-3.2225,-3.2225,-3.2226,-3.2226,0,-3.1548,-3.1564,-3.1611,-3.1664,-3.1703,-3.1747,-3.1792,-3.1815,-3.186,-3.1897,-3.1953,-3.199,-3.2062,-3.2118,-3.2177,-3.221,-3.2226,-3.223,-3.2239,-3.223,-3.2214,-3.2222,-3.216,-3.2228,-3.2228,-3.2228,-3.2228,-3.2227,-3.1574,-3.1607,-3.1657,-3.1708,-3.1746,-3.1787,-3.1823,-3.1859,-3.1906,-3.1967,-3.1987,-3.2045,-3.2096,-3.2177,-3.221,-3.2257,-3.2256,-3.2269,-3.2272,-3.2274,-3.2274,-3.2207,-3.2268,-3.2268,-3.2268,-3.2268,-3.2268,0,-3.162,-3.1653,-3.17,-3.1761,-3.1801,-3.1812,-3.1862,-3.1896,-3.1946,-3.1992,-3.2038,-3.2103,-3.2157,-3.2205,-3.2262,-3.229,-3.2299,-3.2304,-3.2301,-3.2309,-3.2272,-3.2258,-3.2295,-3.2295,-3.2295,-3.2295,-3.2295,-3.2295,-3.1648,-3.1705,-3.1728,-3.1803,-3.1837,-3.1893,-3.1921,-3.1959,-3.1996,-3.2067,-3.2112,-3.2142,-3.2189,-3.225,-3.2301,-3.2313,-3.2333,-3.2336,-3.235,-3.2315,-3.2311,-3.2308,-3.2295,-3.234,-3.234,-3.2384,-3.2384,-3.2384]},{"header":{"parameterUnit":"m.s-1","parameterCategory":1,"la1":30.2991,"la2":30.254,"lo1":-89.0895,"lo2":-89.0444,"dy":0.0017,"dx":0.0017,"nx":28,"ny":28,"refTime":"2025-04-17T21:00:00:Z","depth":0,"parameterNumber":3,"parameterNumberName":"V-component_of_WINDS"},"data":[0,0,0,0,0,0,0,0,0,0,0,0,0,0,0,0,0,0,0,0,0,0,0,0,0,0,0,0,0,0,0,0,0,0,0,0,0,0,0,0,0,0,0,0,0,0,0,0,0,0,0,0,0,0,0,0,0,0,6.1152,6.1153,0,6.124,6.1241,6.1242,6.1235,6.1233,6.1232,6.1231,6.1317,6.132,6.1324,0,0,0,0,0,0,0,0,0,0,0,0,0,6.0974,6.0977,6.1152,6.1153,6.1154,6.124,6.1241,6.1242,6.1235,6.1233,6.1232,6.123,6.1316,6.132,6.1324,0,0,0,0,0,0,0,0,0,0,0,0,0,6.1055,6.0978,6.1152,6.1161,6.1162,6.124,6.1241,6.1243,6.1235,6.1233,6.1231,6.1229,6.1314,6.1319,6.1325,6.1397,0,0,6.1341,6.1343,0,0,0,0,0,0,0,0,6.1051,6.1062,6.1158,6.116,6.1162,6.1224,6.121,6.1294,6.1236,6.1207,6.1231,6.1228,6.1287,6.1295,6.1316,6.1401,6.1405,6.1341,6.1345,6.1347,6.1348,0,0,0,0,0,0,0,6.1045,6.1058,6.1187,6.116,6.1162,6.1159,6.1169,6.1226,6.1257,6.121,6.1209,6.122,6.1288,6.1311,6.1318,6.1406,6.1341,6.1346,6.1349,6.1351,6.1557,6.1559,0,0,0,0,0,0,6.1038,6.1053,6.1184,6.1189,6.1101,6.1164,6.1175,6.1206,6.1257,6.1263,6.1222,6.122,6.1302,6.1311,6.1321,6.141,6.1347,6.1352,6.1355,6.1555,6.1557,6.156,0,0,0,0,0,0,6.1034,6.1049,6.118,6.1121,6.1138,6.1169,6.1205,6.1209,6.1232,6.1266,6.1271,6.1239,6.1301,6.1313,6.1379,6.1413,6.1354,6.1359,6.1552,6.1556,6.1559,6.1588,0,0,0,0,0,0,6.1029,6.1048,6.1077,6.1122,6.1141,6.1238,6.1207,6.1212,6.1241,6.1239,6.1284,6.1289,6.1301,6.1371,6.1384,6.1419,6.1363,6.1549,6.1554,6.1558,6.1585,6.1592,6.1599,0,0,0,0,0,6.1022,6.108,6.1078,6.1094,6.1178,6.124,6.1251,6.1264,6.1244,6.1273,6.1295,6.1288,6.1407,6.1378,6.1392,6.1429,6.1547,6.1552,6.1557,6.1581,6.1591,6.1599,0,0,0,0,0,0,6.1037,6.1086,6.1085,6.1159,6.1196,6.1239,6.1275,6.1274,6.1315,6.1312,6.1325,6.1335,6.1401,6.1422,6.1389,6.1503,6.1474,6.1482,6.1487,6.1497,6.1504,6.1498,6.1368,0,0,0,0,0,6.1049,6.1097,6.1137,6.1199,6.1217,6.1243,6.1271,6.1278,6.1316,6.1331,6.1358,6.1394,6.1439,6.1469,6.1513,6.1587,6.1597,6.162,6.1627,6.1633,6.164,6.1682,6.1693,6.1577,6.1577,6.1577,0,0,6.1074,6.1107,6.1136,6.1203,6.1232,6.128,6.1256,6.1308,6.1344,6.1338,6.1403,6.1424,6.1465,6.1536,6.1568,6.1554,6.1675,6.164,6.1644,6.1648,6.1688,6.1699,6.1709,6.158,6.158,6.1579,0,0,6.1144,6.1174,6.1229,6.126,6.1305,6.1322,6.1335,6.1379,6.1393,6.1458,6.1455,6.1497,6.1575,6.1605,6.163,6.1713,6.1708,6.1727,6.1765,6.1806,6.1815,6.1823,6.1854,6.1864,6.1734,6.1734,6.1734,0,6.1169,6.1243,6.1258,6.1311,6.1341,6.1339,6.1395,6.1423,6.1479,6.1499,6.1484,6.1583,6.161,6.1688,6.1709,6.1729,6.1744,6.1722,6.1813,6.1821,6.1829,6.1858,6.1869,6.1736,6.1736,6.1735,6.1735,0,6.1272,6.1324,6.1363,6.142,6.1453,6.1507,6.1529,6.1562,6.1566,6.1584,6.1651,6.1684,6.1735,6.1753,6.1757,6.1833,6.1823,6.181,6.1782,6.1842,6.187,6.1881,6.1739,6.1738,6.1738,6.1737,0,0,6.1354,6.1419,6.1433,6.146,6.151,6.1549,6.1603,6.1654,6.1682,6.1721,6.1767,6.1833,6.1822,6.1851,6.1858,6.1893,6.1958,6.1876,6.1877,6.1891,6.2044,6.2054,6.2067,6.1955,6.1957,6.1959,6.2041,0,6.1431,6.1529,6.1543,6.1629,6.1677,6.1676,6.1723,6.1758,6.1777,6.182,6.1839,6.1887,6.1868,6.1886,6.1921,6.1943,6.1989,6.1937,6.1997,6.1999,6.1988,6.2081,6.2092,6.2168,6.2051,6.2053,6.2055,0,6.1533,6.1577,6.1668,6.1712,6.1733,6.1775,6.1824,6.1865,6.1904,6.1916,6.1948,6.1952,6.2007,6.1976,6.2052,6.2016,6.2042,6.2056,6.2059,6.2066,6.2031,6.2091,6.2192,6.2204,6.2071,6.207,6.2069,0,6.1585,6.1667,6.1732,6.1754,6.1807,6.1837,6.186,6.1898,6.1929,6.1971,6.199,6.2038,6.2064,6.21,6.2115,6.2091,6.2191,6.2161,6.2202,6.2201,6.2223,6.2222,6.2331,6.2238,6.2238,6.2238,6.2237,0,6.167,6.1726,6.1756,6.1797,6.1859,6.1875,6.1936,6.1958,6.1992,6.2036,6.2037,6.2078,6.2096,6.2139,6.2151,6.2213,6.2224,6.2235,6.2238,6.2235,6.2234,6.2253,6.2248,6.2241,6.224,6.2239,6.2239,0,6.1739,6.1762,6.1833,6.1878,6.1891,6.1935,6.1973,6.2011,6.203,6.2085,6.2099,6.2128,6.2179,6.2198,6.226,6.2268,6.234,6.2338,6.2328,6.2328,6.2368,6.2365,6.2493,6.2511,6.2406,6.2407,6.2408,0,6.1792,6.1835,6.1885,6.1916,6.1941,6.1989,6.2021,6.2037,6.207,6.2119,6.2152,6.2203,6.2246,6.2327,6.2353,6.24,6.24,6.2442,6.2407,6.2404,6.2402,6.2399,6.2404,6.2448,6.2449,6.245,6.2451,0,6.1884,6.1893,6.1939,6.199,6.2028,6.2068,6.2106,6.2131,6.2153,6.219,6.2243,6.2276,6.234,6.2391,6.244,6.2463,6.2461,6.2462,6.2474,6.2472,6.2465,6.2471,6.2346,6.2459,6.2458,6.2457,6.2457,6.2457,6.1947,6.1986,6.2028,6.208,6.2111,6.2147,6.2186,6.221,6.2256,6.231,6.2317,6.2375,6.2413,6.2479,6.2504,6.2549,6.2537,6.2554,6.2559,6.2563,6.2567,6.2457,6.2557,6.2557,6.2557,6.2557,6.2557,0,6.204,6.2068,6.2115,6.217,6.221,6.2206,6.2249,6.2283,6.2334,6.2371,6.2413,6.2474,6.2524,6.2554,6.2604,6.2634,6.2634,6.2646,6.2645,6.265,6.2573,6.2559,6.2645,6.2645,6.2645,6.2645,6.2645,6.2645,6.2094,6.216,6.2174,6.2255,6.2282,6.2339,6.2364,6.2398,6.2428,6.2497,6.2539,6.2558,6.2593,6.2645,6.269,6.2698,6.2716,6.273,6.2736,6.2664,6.2655,6.2646,6.2633,6.2733,6.2733,6.2809,6.281,6.281]}]]